Location: Hokitika
(42.7170°S, 170.9670°E)
Time: 00:21:47
(UTC+12:00)

SJ-6B - Pass Details

Date: 24 January 2019
Orbit: 511 x 582 km, 97.7° (Epoch: 22 April)

Event Time Altitude Azimuth Distance (km) Brightness Sun altitude
Rises 22:28:38 0° 175° (S) 2,667 6.9 -12.9°
Reaches altitude 10° 22:30:48 10° 181° (S) 1,773 6.0 -13.2°
Maximum altitude 22:34:25 43° 252° (WSW) 751 4.0 -13.7°
Drops below altitude 10° 22:38:02 10° 324° (NW) 1,764 5.3 -14.2°
Sets 22:40:11 0° 331° (NNW) 2,652 6.2 -14.5°
